FW8630 Weather Reports


Display with metric or nautical units.
time (UTC)temp
F
wind
direction
speed
MPH
gust
MPH
rain 1hr
in
rain 24hr
in
rain mn
in
humidity
%
barometer
mb
20260510124531 55 198 6.0 13.0 0.00 0.00 0.00 66 1014.8
20260510123026 54 206 6.0 15.0 0.00 0.00 0.00 64 1015.1
20260510121524 53 197 10.0 20.0 0.00 0.00 0.00 68 1015.7
20260510120021 52 223 7.0 16.0 0.00 0.00 0.00 81 1015.8
20260510114523 53 219 9.0 15.0 0.00 0.00 0.00 81 1015.8
20260510113019 53 237 7.0 13.0 0.00 0.00 0.00 80 1015.8
20260510111518 53 223 5.0 11.0 0.00 0.00 0.00 81 1016.1
20260510110015 52 238 6.0 13.0 0.00 0.00 0.00 84 1016.3
20260510104527 51 217 7.0 16.0 0.00 0.00 0.00 87 1016.5
20260510103013 51 226 8.0 14.0 0.00 0.00 0.00 90 1016.7
20260510101511 51 229 7.0 14.0 0.00 0.00 0.00 91 1016.9
20260510100008 51 228 7.0 16.0 0.00 0.00 0.00 90 1017.0
20260510094513 51 229 6.0 12.0 0.00 0.00 0.00 92 1017.1
20260510093003 50 231 6.0 10.0 0.00 0.00 0.00 93 1017.3
20260510091501 50 226 8.0 13.0 0.00 0.00 0.00 92 1017.3
20260510090059 50 250 7.0 13.0 0.00 0.00 0.00 90 1017.3
20260510084600 51 242 7.0 11.0 0.00 0.00 0.00 88 1017.5
20260510083056 50 238 5.0 10.0 0.00 0.00 0.00 90 1017.6
20260510081559 51 234 4.0 10.0 0.00 0.00 0.00 89 1017.8
20260510080052 52 236 5.0 11.0 0.00 0.00 0.00 86 1017.7
20260510074551 53 233 5.0 9.0 0.00 0.00 0.00 81 1017.8
20260510073053 52 270 4.0 9.0 0.00 0.00 0.00 76 1018.1
20260510071546 53 280 3.0 7.0 0.00 0.00 0.00 78 1018.2
20260510070047 52 275 3.0 6.0 0.00 0.00 0.00 73 1018.2
20260510064544 53 174 1.0 3.0 0.00 0.00 0.00 72 1018.4
20260510063041 52 173 1.0 2.0 0.00 0.00 0.00 73 1018.5
20260510061537 52 171 0.0 3.0 0.00 0.00 0.00 60 1018.7
20260510060034 51 164 1.0 5.0 0.00 0.00 0.00 65 1018.7
20260510054535 48 139 1.0 3.0 0.00 0.00 0.00 80 1018.7
20260510053022 45 81 1.0 3.0 0.00 0.00 0.00 88 1018.8
20260510051529 43 81 0.0 1.0 0.00 0.00 0.00 87 1019.0
20260510050014 41 81 0.0 1.0 0.00 0.00 0.00 86 1019.2
20260510044510 38 81 0.0 2.0 0.00 0.00 0.00 86 1019.3
20260510043014 34 81 0.0 2.0 0.00 0.00 0.00 89 1019.5
20260510041502 32 81 0.0 3.0 0.00 0.00 0.00 89 1019.7
20260510033104 29 74 0.0 1.0 0.00 0.00 0.00 91 1020.0
20260510031554 28 74 0.0 2.0 0.00 0.00 0.00 92 1020.3
20260510023022 29 74 0.0 0.0 0.00 0.00 0.00 92 1020.6
20260510021529 29 74 0.0 1.0 0.00 0.00 0.00 93 1020.9
20260510020019 29 74 0.0 3.0 0.00 0.00 0.00 93 1021.0
20260510014517 29 74 1.0 2.0 0.00 0.00 0.00 93 1021.0
20260510013014 30 74 0.0 2.0 0.00 0.00 0.00 93 1021.1
20260510011513 30 74 1.0 3.0 0.00 0.00 0.00 94 1021.4
20260510010012 30 71 0.0 3.0 0.00 0.00 0.00 93 1021.5
20260510004508 31 71 1.0 3.0 0.00 0.00 0.00 93 1021.7
20260510003006 32 71 0.0 0.0 0.00 0.00 0.00 93 1021.7
20260510001507 32 71 0.0 2.0 0.00 0.00 0.00 93 1021.7
20260510000006 32 71 0.0 2.0 0.00 0.00 0.00 93 1021.8
20260509234559 33 71 1.0 2.0 0.00 0.00 0.00 93 1021.8
20260509233057 34 71 1.0 3.0 0.00 0.00 0.00 94 1021.9
20260509231607 34 71 1.0 3.0 0.00 0.00 0.00 96 1022.1
20260509230053 34 71 1.0 4.0 0.00 0.00 0.00 96 1022.2
20260509224551 35 71 1.0 3.0 0.00 0.00 0.00 96 1022.3
20260509223053 35 71 1.0 4.0 0.00 0.00 0.00 97 1022.4
20260509221548 35 81 2.0 4.0 0.00 0.00 0.00 98 1022.6
20260509220046 35 81 1.0 3.0 0.00 0.00 0.00 97 1022.7
20260509214542 36 81 0.0 1.0 0.00 0.00 0.00 96 1022.8
20260509213040 36 81 0.0 1.0 0.00 0.00 0.00 96 1022.8
20260509211540 37 81 1.0 3.0 0.00 0.00 0.00 95 1023.0
20260509210048 37 81 1.0 3.0 0.00 0.00 0.00 93 1023.1
20260509204532 38 81 1.0 2.0 0.00 0.00 0.00 92 1023.0
20260509203034 40 81 0.0 0.0 0.00 0.00 0.00 90 1023.2
20260509201531 41 81 0.0 0.0 0.00 0.00 0.00 88 1023.3
20260509200032 43 81 0.0 0.0 0.00 0.00 0.00 86 1023.5
20260509194532 44 81 0.0 1.0 0.00 0.00 0.00 84 1023.5
20260509193028 45 81 0.0 2.0 0.00 0.00 0.00 83 1023.6
20260509191529 45 81 1.0 3.0 0.00 0.00 0.00 82 1023.5
20260509190035 46 73 2.0 6.0 0.00 0.00 0.00 79 1023.5
20260509184535 47 90 1.0 5.0 0.00 0.00 0.00 75 1023.4
20260509183027 49 78 3.0 10.0 0.00 0.00 0.00 72 1023.4
20260509181527 50 71 3.0 9.0 0.00 0.00 0.00 69 1023.2
20260509180026 51 75 3.0 6.0 0.00 0.00 0.00 67 1023.2
20260509174525 52 74 2.0 8.0 0.00 0.00 0.00 65 1023.2
20260509173052 53 65 4.0 10.0 0.00 0.00 0.00 61 1023.3
20260509171529 54 44 4.0 10.0 0.00 0.00 0.00 59 1023.3
20260509170022 55 61 5.0 13.0 0.00 0.00 0.00 53 1023.5
20260509164521 56 20 7.0 14.0 0.00 0.00 0.00 47 1023.5
20260509163023 57 78 6.0 13.0 0.00 0.00 0.00 49 1023.6
20260509161517 60 80 6.0 12.0 0.00 0.00 0.00 53 1023.7
20260509160021 60 39 7.0 14.0 0.00 0.00 0.00 55 1023.8
20260509154515 59 42 6.0 13.0 0.00 0.00 0.00 55 1023.9
20260509153022 60 86 7.0 14.0 0.00 0.00 0.00 53 1024.1
20260509151511 61 72 5.0 12.0 0.00 0.00 0.00 56 1024.1
20260509150011 62 35 7.0 14.0 0.00 0.00 0.00 57 1024.2
20260509144507 60 79 4.0 11.0 0.00 0.00 0.00 60 1024.4
20260509143011 60 313 1.0 4.0 0.00 0.00 0.00 70 1024.5
20260509141506 57 309 2.0 7.0 0.00 0.00 0.00 76 1024.5
20260509140006 56 246 2.0 7.0 0.00 0.00 0.00 82 1024.6
20260509134504 56 238 3.0 7.0 0.00 0.00 0.00 81 1024.6
20260509133003 56 287 2.0 9.0 0.00 0.00 0.00 85 1024.6
20260509131502 58 284 4.0 9.0 0.00 0.00 0.00 78 1024.7
20260509130003 59 232 3.0 7.0 0.00 0.00 0.00 74 1024.8